GCFIZ EGPJ-EGPH

Flight info

Callsign GCFIZ
Flight time 0h 12m
Altitude 2500
Route EGPJ M90 J4 KELTY VRP EGPH
Aircraft C172/L-G/L

Departure

Time 2026-05-04 08:35
Airport Fife Airport (EGPJ)

Arrival

Time 2026-05-04 08:48
Airport Edinburgh Airport (EGPH)
Time Latitude Longitude Altitude Speed Heading
2026-05-04 08:33 56.18413 -3.21532 402 ft 0 kts 330°
2026-05-04 08:35 56.17981 -3.22981 593 ft 71 kts 237°
2026-05-04 08:35 56.17700 -3.23722 772 ft 73 kts 236°
2026-05-04 08:35 56.17410 -3.24503 953 ft 77 kts 237°
2026-05-04 08:35 56.17114 -3.25345 1134 ft 82 kts 239°
2026-05-04 08:37 56.14925 -3.32180 1512 ft 127 kts 250°
2026-05-04 08:37 56.14605 -3.33685 1509 ft 128 kts 249°
2026-05-04 08:37 56.14243 -3.35141 1508 ft 128 kts 245°
2026-05-04 08:38 56.13841 -3.36569 1508 ft 129 kts 243°
2026-05-04 08:38 56.13380 -3.37947 1499 ft 128 kts 227°
2026-05-04 08:38 56.12616 -3.38716 1503 ft 123 kts 199°
2026-05-04 08:40 56.06729 -3.40710 1335 ft 126 kts 192°
2026-05-04 08:40 56.05897 -3.40958 1253 ft 119 kts 189°
2026-05-04 08:40 56.05083 -3.41160 1174 ft 115 kts 189°
2026-05-04 08:41 56.04305 -3.41353 1097 ft 112 kts 189°
2026-05-04 08:41 56.03531 -3.41545 1019 ft 111 kts 189°
2026-05-04 08:41 56.02799 -3.41726 1019 ft 103 kts 189°
2026-05-04 08:41 56.02101 -3.41899 1021 ft 98 kts 189°
2026-05-04 08:42 56.01442 -3.42062 1022 ft 94 kts 189°
2026-05-04 08:42 56.00798 -3.42223 1022 ft 92 kts 189°
2026-05-04 08:42 56.00167 -3.42380 1025 ft 92 kts 189°
2026-05-04 08:42 55.99498 -3.42550 1030 ft 102 kts 189°
2026-05-04 08:43 55.98767 -3.42740 1028 ft 109 kts 189°
2026-05-04 08:43 55.97994 -3.42941 1024 ft 109 kts 189°
2026-05-04 08:43 55.97254 -3.43129 1022 ft 104 kts 189°
2026-05-04 08:43 55.96549 -3.43305 1022 ft 101 kts 188°
2026-05-04 08:44 55.95890 -3.42975 1016 ft 99 kts 142°
2026-05-04 08:44 55.95562 -3.41929 1017 ft 97 kts 98°
2026-05-04 08:46 55.97953 -3.34396 1036 ft 108 kts 60°
2026-05-04 08:46 55.98042 -3.33110 941 ft 105 kts 108°
2026-05-04 08:46 55.97612 -3.32103 825 ft 101 kts 147°
2026-05-04 08:46 55.96962 -3.31946 703 ft 97 kts 199°
2026-05-04 08:47 55.96471 -3.32677 582 ft 86 kts 239°
2026-05-04 08:47 55.96203 -3.33558 424 ft 77 kts 245°
2026-05-04 08:47 55.95970 -3.34350 310 ft 68 kts 242°
2026-05-04 08:47 55.95735 -3.35074 219 ft 67 kts 239°
2026-05-04 08:48 55.95498 -3.35774 140 ft 62 kts 239°
2026-05-04 08:48 55.95333 -3.36275 136 ft 26 kts 237°
2026-05-04 08:48 55.95267 -3.36402 136 ft 14 kts 182°
2026-05-04 08:48 55.95187 -3.36347 136 ft 0 kts 147°
2026-05-04 08:49 55.95186 -3.36346 136 ft 3 kts 147°
2026-05-04 08:50 55.94931 -3.35278 136 ft 16 kts 117°
2026-05-04 08:50 55.94878 -3.35110 136 ft 15 kts 121°
2026-05-04 08:51 55.94829 -3.34955 136 ft 13 kts 118°
2026-05-04 08:51 55.94785 -3.34817 136 ft 12 kts 120°
2026-05-04 08:51 55.94776 -3.34681 136 ft 10 kts 72°
2026-05-04 08:51 55.94750 -3.34585 136 ft 8 kts 152°
2026-05-04 08:52 55.94722 -3.34576 136 ft 1 kts 332°
2026-05-04 08:52 55.94723 -3.34577 136 ft 0 kts 331°